TimeMDT,TemperatureF,Dew PointF,Humidity,Sea Level PressureIn,VisibilityMPH,Wind Direction,Wind SpeedMPH,Gust SpeedMPH,PrecipitationIn,Events,Conditions,WindDirDegrees,DateUTC
12:00 AM,24,21,85,30.16,7,WNW,11.5,,,Snow,Light Snow,290,2012-10-20 06:00:00
12:00 AM,24.8,21.2,86,30.16,8.0,WNW,11.5,-,N/A,Snow,Light Snow,290,2012-10-20 06:00:00
1:00 AM,23.0,19.4,86,30.17,6.0,NW,15.0,23.0,N/A,Snow,Light Snow,310,2012-10-20 07:00:00
2:00 AM,21.2,15.8,80,30.19,30.0,WNW,10.4,-,N/A,,Partly Cloudy,290,2012-10-20 08:00:00
3:00 AM,23.0,15.8,74,30.21,30.0,NNW,11.5,20.7,N/A,,Partly Cloudy,330,2012-10-20 09:00:00
4:00 AM,23.0,15.8,74,30.22,15.0,NW,8.1,-,N/A,Snow,Light Snow,310,2012-10-20 10:00:00
5:00 AM,23.0,15.8,74,30.23,20.0,NW,3.5,-,N/A,Snow,Light Snow,320,2012-10-20 11:00:00
6:00 AM,23,17,67,30.25,19,NW,12.7,,,Snow,Light Snow,320,2012-10-20 12:00:00
6:00 AM,23.0,15.8,74,30.24,20.0,NW,13.8,24.2,N/A,Snow,Light Snow,320,2012-10-20 12:00:00
7:00 AM,23.0,15.8,74,30.26,30.0,NW,8.1,-,N/A,Snow,Light Snow,310,2012-10-20 13:00:00
8:00 AM,23.0,17.6,80,30.27,30.0,WNW,9.2,17.3,N/A,Snow,Light Snow,300,2012-10-20 14:00:00
9:00 AM,21.2,15.8,80,30.30,30.0,WNW,10.4,-,N/A,Snow,Light Snow,300,2012-10-20 15:00:00
10:00 AM,19.4,14.0,80,30.31,30.0,West,16.1,-,N/A,,Mostly Cloudy,280,2012-10-20 16:00:00
11:00 AM,19.4,15.8,86,30.31,15.0,West,16.1,-,N/A,,Mostly Cloudy,280,2012-10-20 17:00:00
12:00 PM,23,17,68,30.33,15,WNW,17.3,,,Snow,Low Drifting Snow,290,2012-10-20 18:00:00
12:00 PM,23.0,17.6,80,30.33,15.0,WNW,15.0,24.2,N/A,Snow,Low Drifting Snow,290,2012-10-20 18:00:00
1:00 PM,23.0,17.6,80,30.35,5.0,West,16.1,-,N/A,Snow,Low Drifting Snow,280,2012-10-20 19:00:00
2:00 PM,24.8,17.6,74,30.37,15.0,WNW,15.0,24.2,N/A,Snow,Low Drifting Snow,290,2012-10-20 20:00:00
3:00 PM,24.8,17.6,74,30.38,15.0,WNW,16.1,27.6,N/A,Snow,Low Drifting Snow,300,2012-10-20 21:00:00
4:00 PM,26.6,17.6,69,30.39,15.0,NW,8.1,24.2,N/A,Snow,Low Drifting Snow,310,2012-10-20 22:00:00
5:00 PM,23.0,15.8,74,30.41,20.0,West,10.4,-,N/A,,Scattered Clouds,280,2012-10-20 23:00:00
5:43 PM,23.0,19.4,86,30.41,10.0,WNW,11.5,-,N/A,Snow,Light Snow,290,2012-10-20 23:43:00
6:00 PM,24,21,81,30.42,10,WNW,11.5,,,Snow,Light Snow,290,2012-10-21 00:00:00
6:00 PM,24.8,21.2,86,30.42,10.0,WNW,10.4,-,N/A,Snow,Light Snow,300,2012-10-21 00:00:00
7:00 PM,23.0,19.4,86,30.44,10.0,WNW,9.2,-,N/A,Snow,Light Snow,300,2012-10-21 01:00:00
8:00 PM,23.0,17.6,80,30.45,15.0,WNW,9.2,-,N/A,Snow,Light Snow,300,2012-10-21 02:00:00
8:14 PM,23.0,19.4,86,30.46,20.0,WNW,9.2,-,N/A,,Mostly Cloudy,300,2012-10-21 02:14:00
9:00 PM,23.0,19.4,86,30.47,20.0,WNW,10.4,-,N/A,,Mostly Cloudy,300,2012-10-21 03:00:00
10:00 PM,23.0,17.6,80,30.49,20.0,WNW,12.7,-,N/A,,Mostly Cloudy,290,2012-10-21 04:00:00
11:00 PM,23.0,19.4,86,30.50,20.0,WNW,9.2,18.4,N/A,,Scattered Clouds,300,2012-10-21 05:00:00